CZ-4B R/B (48624 NORAD) Tracking and Keplerian Element Data

This shows tracking and keplerian element data for the satellite.

Feedback or suggestion? Click here.




ElementValue
Catalog48624
NameCZ-4B R/B
Epoch Orbit411
Epoch Day168.21914745
Epoch Year2021
RAAN166.3315
Inclination66.0621
Eccentricity0.0158556
Argument of Perigee0.1827
Mean Anonmoly359.9291
Mean Motion14.20773174
Decay Rate1.21E-06
L11 48624U 21043D 21168.21914745 .00000121 00000-0 86287-4 0 9994
L22 48624 66.0621 166.3315 0158556 0.1827 359.9291 14.20773174 4110

Live tracking and technical data element details for CZ-4B R/B (NORAD 48624). CZ-4B R/B can be tracked NOW for your location showing map with azimuth and elevation plus other details from your city location.

Track the satellite on the map from your city or location and see movement details for azimuth, elevation, latitude, longitude, range, height, and movement on the map or in text.







IsCatalogInMostPopularTable: catalog: 48624, numindb: 38
Update: records affected: 1



GetName: 48624 CZ-4B R/B

Hit Count: updated at: Tue, 19 Oct 2021 09:49:06 GMT